Location: Christchurch
(43.5330°S, 172.6330°E)
Time: 21:36:55
(UTC+12:00)

ISS - Visible Passes

Search period start: 16 September 2024 00:00
Search period end: 26 September 2024 00:00
Orbit: 414 x 424 km, 51.6° (Epoch: 16 September)

Date Brightness Start Highest point End Pass type
(mag) Time Alt. Az. Time Alt. Az. Time Alt. Az.
17 Sep -1.9 05:49:51 10° NNW 05:52:56 31° NE 05:56:02 10° ESE visible
18 Sep -1.3 05:03:10 10° N 05:05:43 20° NE 05:08:17 10° E visible
19 Sep -0.9 04:17:49 11° NNE 04:18:46 12° NE 04:20:13 10° ENE visible
19 Sep -3.6 05:51:40 10° NW 05:55:07 85° NNE 05:58:37 10° ESE visible
20 Sep -3.1 05:06:08 20° NNW 05:08:15 53° NE 05:11:40 10° ESE visible
21 Sep -2.4 04:21:31 33° NE 04:21:39 33° NE 04:24:49 10° ESE visible
22 Sep -0.8 03:37:01 15° E 03:37:01 15° E 03:38:00 10° E visible
22 Sep -3.5 05:10:03 24° WNW 05:11:57 60° SSW 05:15:25 10° SE visible
23 Sep -3.8 04:25:42 88° SSE 04:25:42 88° SSE 04:29:12 10° ESE visible
24 Sep -1.4 03:41:29 25° ESE 03:41:29 25° ESE 03:43:09 10° ESE visible
24 Sep -2.4 05:14:32 16° WSW 05:16:47 31° SSW 05:19:58 10° SE visible
25 Sep -2.9 04:30:30 38° SW 04:30:52 40° SSW 04:34:13 10° SE visible
